• In Latvia
  • List of Countries
  • For 7 days
  • Water Temperature
  • Satellite Maps
  • Weather Map
  • Weather Widgets
  • user-avatar
    Login

    Hourly Weather Preili

    Today, 11 December, Monday

    Time Temperature Precipitation Wind Pressure Humidity
    00:00 -2°C° 0 mm 1 mps 740 mmHg 89%
    01:00 -4°C° 0 mm 2 mps 739 mmHg 90%
    02:00 -4°C° 0 mm 2 mps 739 mmHg 91%
    03:00 -5°C° 0 mm 2 mps 739 mmHg 91%
    04:00 -5°C° 0 mm 2 mps 739 mmHg 91%
    05:00 -5°C° 0 mm 2 mps 739 mmHg 91%
    06:00 -5°C° 0 mm 2 mps 739 mmHg 90%
    07:00 -6°C° 0 mm 3 mps 739 mmHg 90%
    08:00 -7°C° 0 mm 3 mps 738 mmHg 90%
    09:00 -7°C° 0 mm 3 mps 739 mmHg 89%
    10:00 -6°C° 0 mm 3 mps 739 mmHg 87%
    11:00 -6°C° 0 mm 3 mps 739 mmHg 86%
    12:00 -5°C° 0 mm 3 mps 739 mmHg 86%
    13:00 -5°C° 0 mm 3 mps 739 mmHg 86%
    14:00 -5°C° 0 mm 3 mps 739 mmHg 87%
    15:00 -5°C° 0 mm 3 mps 739 mmHg 88%
    16:00 -5°C° 0 mm 3 mps 739 mmHg 89%
    17:00 -6°C° 0 mm 3 mps 740 mmHg 91%
    18:00 -5°C° 0 mm 3 mps 740 mmHg 90%
    19:00 -4°C° 0 mm 3 mps 740 mmHg 90%
    20:00 -2°C° 0 mm 3 mps 740 mmHg 90%
    21:00 -2°C° 0 mm 3 mps 740 mmHg 91%
    22:00 -2°C° 0 mm 3 mps 740 mmHg 91%
    23:00 -1°C° 0 mm 3 mps 740 mmHg 92%

    Tomorrow, 12 December, Tuesday

    Time Temperature Precipitation Wind Pressure Humidity
    00:00 -2°C° 0 mm 4 mps 740 mmHg 92%
    01:00 -2°C° 0 mm 4 mps 740 mmHg 92%
    02:00 -2°C° 0 mm 4 mps 740 mmHg 92%
    03:00 -2°C° 0 mm 5 mps 739 mmHg 92%
    04:00 -2°C° 0 mm 5 mps 739 mmHg 91%
    05:00 -2°C° 0 mm 5 mps 738 mmHg 91%
    06:00 -2°C° 0.4 mm 5 mps 738 mmHg 91%
    07:00 -2°C° 0.4 mm 6 mps 737 mmHg 90%
    08:00 -2°C° 0.4 mm 6 mps 737 mmHg 90%
    09:00 -1°C° 0.1 mm 6 mps 736 mmHg 91%
    10:00 -1°C° 0.1 mm 6 mps 736 mmHg 92%
    11:00 +1°C° 0.1 mm 6 mps 735 mmHg 93%
    12:00 +1°C° 0.2 mm 6 mps 735 mmHg 94%
    13:00 +2°C° 0.2 mm 6 mps 734 mmHg 94%
    14:00 +2°C° 0.2 mm 6 mps 734 mmHg 95%
    15:00 +3°C° 0.4 mm 6 mps 734 mmHg 94%
    16:00 +3°C° 0.4 mm 6 mps 735 mmHg 94%
    17:00 +3°C° 0.4 mm 5 mps 735 mmHg 94%
    18:00 +3°C° 0 mm 5 mps 736 mmHg 92%
    19:00 +3°C° 0 mm 5 mps 736 mmHg 91%
    20:00 +2°C° 0 mm 5 mps 737 mmHg 89%
    21:00 +2°C° 0 mm 5 mps 737 mmHg 87%
    22:00 +1°C° 0 mm 6 mps 737 mmHg 85%
    23:00 +1°C° 0 mm 6 mps 738 mmHg 83%

    Day after tomorrow, 13 December, Wednesday

    Time Temperature Precipitation Wind Pressure Humidity
    00:00 +1°C° 0 mm 6 mps 738 mmHg 82%
    01:00 -1°C° 0 mm 6 mps 738 mmHg 80%
    02:00 -1°C° 0 mm 7 mps 738 mmHg 79%
    03:00 -1°C° 0.1 mm 7 mps 738 mmHg 78%
    04:00 -1°C° 0.1 mm 8 mps 739 mmHg 78%
    05:00 -1°C° 0.1 mm 8 mps 739 mmHg 77%
    06:00 -1°C° 0.2 mm 7 mps 740 mmHg 80%
    07:00 -1°C° 0.2 mm 6 mps 741 mmHg 83%
    08:00 0°C° 0.2 mm 5 mps 742 mmHg 85%
    09:00 0°C° 0.1 mm 5 mps 743 mmHg 84%
    10:00 -1°C° 0.1 mm 5 mps 744 mmHg 83%
    11:00 -1°C° 0.1 mm 5 mps 745 mmHg 82%
    12:00 -1°C° 0 mm 4 mps 745 mmHg 82%
    13:00 -1°C° 0 mm 4 mps 745 mmHg 81%
    14:00 -1°C° 0 mm 3 mps 746 mmHg 80%
    15:00 -1°C° 0.1 mm 4 mps 746 mmHg 82%
    16:00 -1°C° 0.1 mm 4 mps 746 mmHg 84%
    17:00 -1°C° 0.1 mm 5 mps 746 mmHg 86%
    18:00 -2°C° 0 mm 4 mps 747 mmHg 87%
    19:00 -2°C° 0 mm 4 mps 747 mmHg 88%
    20:00 -3°C° 0 mm 4 mps 747 mmHg 90%
    21:00 -2°C° 0 mm 3 mps 747 mmHg 91%
    22:00 -4°C° 0 mm 3 mps 747 mmHg 91%
    23:00 -4°C° 0 mm 3 mps 747 mmHg 92%

    14 December, Thursday

    Time Temperature Precipitation Wind Pressure Humidity
    00:00 -4°C° 0 mm 3 mps 746 mmHg 92%
    01:00 -4°C° 0 mm 3 mps 746 mmHg 92%
    02:00 -4°C° 0 mm 4 mps 746 mmHg 92%
    03:00 -4°C° 0 mm 4 mps 745 mmHg 90%
    04:00 -4°C° 0 mm 4 mps 745 mmHg 89%
    05:00 -4°C° 0 mm 4 mps 744 mmHg 87%
    06:00 -5°C° 0 mm 5 mps 744 mmHg 85%
    07:00 -5°C° 0 mm 5 mps 743 mmHg 83%
    08:00 -5°C° 0 mm 5 mps 743 mmHg 81%
    09:00 -4°C° 0 mm 5 mps 742 mmHg 78%
    10:00 -4°C° 0 mm 6 mps 742 mmHg 76%
    11:00 -4°C° 0 mm 6 mps 741 mmHg 73%
    12:00 -4°C° 0 mm 6 mps 740 mmHg 73%
    13:00 -3°C° 0 mm 6 mps 739 mmHg 74%
    14:00 -3°C° 0 mm 6 mps 739 mmHg 75%
    15:00 -3°C° 0.2 mm 6 mps 738 mmHg 78%
    16:00 -2°C° 0.2 mm 6 mps 738 mmHg 80%
    17:00 -2°C° 0.2 mm 6 mps 738 mmHg 83%
    18:00 -2°C° 0.4 mm 6 mps 737 mmHg 84%
    19:00 -2°C° 0.4 mm 6 mps 737 mmHg 85%
    20:00 -1°C° 0.4 mm 5 mps 736 mmHg 86%
    21:00 -2°C° 0.2 mm 6 mps 737 mmHg 85%
    22:00 -1°C° 0.2 mm 6 mps 737 mmHg 84%
    23:00 -1°C° 0.2 mm 6 mps 737 mmHg 84%

    15 December, Friday

    Time Temperature Precipitation Wind Pressure Humidity
    00:00 -1°C° 0 mm 5 mps 737 mmHg 84%
    01:00 -2°C° 0 mm 5 mps 738 mmHg 85%
    02:00 -2°C° 0 mm 4 mps 738 mmHg 85%
    03:00 -3°C° 0 mm 4 mps 739 mmHg 87%
    04:00 -2°C° 0 mm 3 mps 739 mmHg 89%
    05:00 -4°C° 0 mm 3 mps 739 mmHg 91%
    06:00 -4°C° 0 mm 3 mps 739 mmHg 90%
    07:00 -3°C° 0 mm 4 mps 740 mmHg 90%
    08:00 -3°C° 0 mm 4 mps 740 mmHg 89%
    09:00 -3°C° 0 mm 4 mps 739 mmHg 86%
    10:00 -2°C° 0 mm 4 mps 739 mmHg 83%
    11:00 -2°C° 0 mm 4 mps 739 mmHg 80%
    12:00 -2°C° 0 mm 4 mps 738 mmHg 82%
    13:00 -2°C° 0 mm 5 mps 738 mmHg 85%
    14:00 -1°C° 0 mm 5 mps 737 mmHg 88%
    15:00 -1°C° 0.1 mm 5 mps 737 mmHg 88%
    16:00 -1°C° 0.1 mm 5 mps 736 mmHg 89%
    17:00 -1°C° 0.1 mm 5 mps 736 mmHg 89%
    18:00 -1°C° 0.7 mm 4 mps 735 mmHg 90%
    19:00 -1°C° 0.7 mm 4 mps 734 mmHg 90%
    20:00 -1°C° 0.7 mm 4 mps 734 mmHg 90%
    21:00 -1°C° 0.5 mm 4 mps 733 mmHg 91%
    22:00 -1°C° 0.5 mm 4 mps 733 mmHg 92%
    23:00 0°C° 0.5 mm 3 mps 733 mmHg 92%

    16 December, Saturday

    Time Temperature Precipitation Wind Pressure Humidity
    00:00 -1°C° 0.3 mm 4 mps 733 mmHg 92%
    01:00 -1°C° 0.3 mm 4 mps 734 mmHg 91%
    02:00 -1°C° 0.3 mm 4 mps 734 mmHg 90%
    03:00 -1°C° 0.1 mm 5 mps 735 mmHg 90%
    04:00 -1°C° 0.1 mm 5 mps 736 mmHg 89%
    05:00 -1°C° 0.1 mm 5 mps 736 mmHg 89%
    06:00 -1°C° 0.1 mm 5 mps 737 mmHg 89%
    07:00 -1°C° 0.1 mm 5 mps 738 mmHg 89%
    08:00 -1°C° 0.1 mm 5 mps 739 mmHg 89%
    09:00 -2°C° 0 mm 4 mps 739 mmHg 90%
    10:00 -2°C° 0 mm 4 mps 740 mmHg 91%
    11:00 -1°C° 0 mm 3 mps 740 mmHg 91%
    12:00 -1°C° 0 mm 3 mps 740 mmHg 91%
    13:00 -2°C° 0 mm 3 mps 740 mmHg 91%
    14:00 -2°C° 0 mm 3 mps 741 mmHg 91%
    15:00 -2°C° 0 mm 2 mps 741 mmHg 92%
    16:00 -3°C° 0 mm 2 mps 741 mmHg 93%
    17:00 -1°C° 0 mm 1 mps 741 mmHg 95%
    18:00 -4°C° 0 mm 2 mps 742 mmHg 95%
    19:00 -4°C° 0 mm 2 mps 742 mmHg 95%
    20:00 -4°C° 0 mm 2 mps 742 mmHg 95%
    21:00 -4°C° 0 mm 2 mps 742 mmHg 95%
    22:00 -4°C° 0 mm 2 mps 743 mmHg 94%
    23:00 -4°C° 0 mm 2 mps 743 mmHg 94%
    Show more